| time (UTC) | temp F | wind direction | speed MPH | gust MPH | rain 1hr in | rain 24hr in | rain mn in | humidity % | barometer mb |
| 20260902103034 | 77 | 135 | 0.0 | 2.0 | 0.00 | 0.00 | 0.00 | 99 | 1012.5 |
| 20260902102529 | 77 | 135 | 0.0 | 2.0 | 0.00 | 0.00 | 0.00 | 99 | 1012.9 |
| 20260902102025 | 77 | 113 | 0.0 | 2.0 | 0.00 | 0.00 | 0.00 | 99 | 1012.9 |
| 20260902101521 | 77 | 113 | 0.0 | 4.0 | 0.00 | 0.00 | 0.00 | 99 | 1012.9 |
| 20260902101018 | 77 | 113 | 0.0 | 4.0 | 0.00 | 0.00 | 0.00 | 99 | 1012.9 |
| 20260902100514 | 77 | 113 | 0.0 | 4.0 | 0.00 | 0.00 | 0.00 | 99 | 1012.9 |
| 20260902100010 | 77 | 135 | 0.0 | 4.0 | 0.00 | 0.00 | 0.00 | 99 | 1012.9 |
| 20260902095506 | 77 | 113 | 1.0 | 4.0 | 0.00 | 0.00 | 0.00 | 99 | 1012.9 |
| 20260902095002 | 77 | 113 | 0.0 | 4.0 | 0.00 | 0.00 | 0.00 | 99 | 1012.9 |
| 20260902094458 | 77 | 113 | 0.0 | 4.0 | 0.00 | 0.00 | 0.00 | 99 | 1012.9 |
| 20260902093954 | 77 | 113 | 0.0 | 4.0 | 0.00 | 0.00 | 0.00 | 99 | 1012.9 |
| 20260902093450 | 78 | 113 | 0.0 | 4.0 | 0.00 | 0.00 | 0.00 | 99 | 1012.9 |
| 20260902092946 | 78 | 113 | 0.0 | 4.0 | 0.00 | 0.00 | 0.00 | 99 | 1012.9 |
| 20260902092442 | 78 | 113 | 0.0 | 4.0 | 0.00 | 0.00 | 0.00 | 99 | 1012.5 |
| 20260902091939 | 78 | 113 | 4.0 | 4.0 | 0.00 | 0.00 | 0.00 | 99 | 1012.5 |
| 20260902091433 | 78 | 113 | 2.0 | 3.0 | 0.00 | 0.00 | 0.00 | 99 | 1012.5 |
| 20260902090929 | 78 | 113 | 0.0 | 3.0 | 0.00 | 0.00 | 0.00 | 99 | 1012.5 |
| 20260902090411 | 78 | 113 | 2.0 | 3.0 | 0.00 | 0.00 | 0.00 | 99 | 1012.5 |
| 20260902085907 | 78 | 113 | 0.0 | 3.0 | 0.00 | 0.00 | 0.00 | 99 | 1012.5 |
| 20260902085403 | 78 | 113 | 0.0 | 3.0 | 0.00 | 0.00 | 0.00 | 99 | 1012.5 |
| 20260902084859 | 78 | 113 | 0.0 | 3.0 | 0.00 | 0.00 | 0.00 | 99 | 1012.5 |
| 20260902084356 | 78 | 135 | 2.0 | 2.0 | 0.00 | 0.00 | 0.00 | 99 | 1012.5 |
| 20260902083852 | 78 | 113 | 0.0 | 2.0 | 0.00 | 0.00 | 0.00 | 99 | 1012.5 |
| 20260902083348 | 78 | 113 | 0.0 | 2.0 | 0.00 | 0.00 | 0.00 | 99 | 1012.5 |
| 20260902082845 | 78 | 135 | 0.0 | 2.0 | 0.00 | 0.00 | 0.00 | 99 | 1012.5 |
| 20260902082341 | 78 | 135 | 0.0 | 2.0 | 0.00 | 0.00 | 0.00 | 99 | 1012.5 |
| 20260902081823 | 78 | 113 | 0.0 | 2.0 | 0.00 | 0.00 | 0.00 | 99 | 1012.5 |
| 20260902081319 | 78 | 135 | 0.0 | 3.0 | 0.00 | 0.00 | 0.00 | 99 | 1012.5 |
| 20260902080654 | 78 | 135 | 2.0 | 3.0 | 0.00 | 0.00 | 0.00 | 99 | 1012.5 |
| 20260902080150 | 78 | 158 | 2.0 | 3.0 | 0.00 | 0.00 | 0.00 | 99 | 1012.5 |
| 20260902075646 | 78 | 135 | 1.0 | 5.0 | 0.00 | 0.00 | 0.00 | 99 | 1012.5 |
| 20260902075128 | 78 | 113 | 2.0 | 5.0 | 0.00 | 0.00 | 0.00 | 99 | 1012.5 |
| 20260902074609 | 78 | 113 | 1.0 | 5.0 | 0.00 | 0.00 | 0.00 | 99 | 1012.5 |
| 20260902074106 | 78 | 113 | 0.0 | 5.0 | 0.00 | 0.00 | 0.00 | 99 | 1012.5 |
| 20260902073602 | 78 | 135 | 0.0 | 5.0 | 0.00 | 0.00 | 0.00 | 99 | 1012.9 |
| 20260902073059 | 79 | 135 | 0.0 | 5.0 | 0.00 | 0.00 | 0.00 | 99 | 1012.9 |
| 20260902072555 | 79 | 113 | 0.0 | 5.0 | 0.00 | 0.00 | 0.00 | 99 | 1012.9 |
| 20260902072037 | 79 | 113 | 1.0 | 5.0 | 0.00 | 0.00 | 0.00 | 99 | 1012.9 |
| 20260902071518 | 79 | 113 | 2.0 | 5.0 | 0.00 | 0.00 | 0.00 | 99 | 1012.9 |
| 20260902071014 | 79 | 135 | 0.0 | 5.0 | 0.00 | 0.00 | 0.00 | 99 | 1012.9 |
| 20260902070510 | 79 | 135 | 2.0 | 5.0 | 0.00 | 0.00 | 0.00 | 99 | 1012.9 |
| 20260902070008 | 79 | 135 | 4.0 | 5.0 | 0.00 | 0.00 | 0.00 | 99 | 1012.9 |
| 20260902065504 | 79 | 158 | 1.0 | 5.0 | 0.00 | 0.00 | 0.00 | 99 | 1012.9 |
| 20260902065000 | 79 | 135 | 2.0 | 5.0 | 0.00 | 0.00 | 0.00 | 99 | 1012.5 |
| 20260902064456 | 79 | 113 | 2.0 | 6.0 | 0.00 | 0.00 | 0.00 | 99 | 1012.5 |
| 20260902063952 | 79 | 135 | 2.0 | 6.0 | 0.00 | 0.00 | 0.00 | 98 | 1012.5 |
| 20260902063448 | 79 | 158 | 3.0 | 6.0 | 0.00 | 0.00 | 0.00 | 98 | 1012.5 |
| 20260902062945 | 79 | 158 | 3.0 | 7.0 | 0.00 | 0.00 | 0.00 | 98 | 1012.5 |
| 20260902062441 | 79 | 180 | 2.0 | 7.0 | 0.00 | 0.00 | 0.00 | 98 | 1012.9 |
| 20260902061937 | 80 | 158 | 2.0 | 7.0 | 0.00 | 0.00 | 0.00 | 98 | 1012.9 |
| 20260902061434 | 80 | 180 | 2.0 | 7.0 | 0.00 | 0.00 | 0.00 | 98 | 1012.9 |
| 20260902060930 | 80 | 180 | 2.0 | 7.0 | 0.00 | 0.00 | 0.00 | 97 | 1012.9 |
| 20260902060426 | 80 | 180 | 2.0 | 7.0 | 0.00 | 0.00 | 0.00 | 97 | 1012.9 |
| 20260902055923 | 80 | 135 | 3.0 | 7.0 | 0.00 | 0.00 | 0.00 | 97 | 1012.9 |
| 20260902055404 | 80 | 135 | 5.0 | 7.0 | 0.00 | 0.00 | 0.00 | 97 | 1012.9 |
| 20260902054900 | 80 | 158 | 3.0 | 7.0 | 0.00 | 0.00 | 0.00 | 97 | 1012.9 |
| 20260902054357 | 80 | 158 | 2.0 | 7.0 | 0.00 | 0.00 | 0.00 | 97 | 1012.9 |
| 20260902053838 | 80 | 158 | 4.0 | 7.0 | 0.00 | 0.00 | 0.00 | 97 | 1012.9 |
| 20260902053334 | 80 | 135 | 2.0 | 7.0 | 0.00 | 0.00 | 0.00 | 97 | 1012.9 |
| 20260902052830 | 80 | 113 | 5.0 | 7.0 | 0.00 | 0.00 | 0.00 | 97 | 1012.9 |
| 20260902052326 | 80 | 135 | 3.0 | 10.0 | 0.00 | 0.00 | 0.00 | 97 | 1012.9 |
| 20260902051823 | 80 | 158 | 4.0 | 10.0 | 0.00 | 0.00 | 0.00 | 97 | 1012.9 |
| 20260902051319 | 80 | 135 | 3.0 | 10.0 | 0.00 | 0.00 | 0.00 | 97 | 1012.9 |
| 20260902050710 | 80 | 135 | 2.0 | 10.0 | 0.00 | 0.00 | 0.00 | 97 | 1012.9 |
| 20260902050206 | 80 | 158 | 2.0 | 10.0 | 0.00 | 0.15 | 0.15 | 97 | 1012.9 |
| 20260902045647 | 80 | 113 | 2.0 | 10.0 | 0.00 | 0.15 | 0.15 | 97 | 1012.9 |
| 20260902045143 | 80 | 113 | 3.0 | 10.0 | 0.00 | 0.15 | 0.15 | 97 | 1012.9 |
| 20260902044639 | 80 | 135 | 2.0 | 10.0 | 0.00 | 0.15 | 0.15 | 97 | 1013.2 |
| 20260902044119 | 80 | 135 | 5.0 | 10.0 | 0.00 | 0.15 | 0.15 | 97 | 1013.2 |
| 20260902043609 | 80 | 158 | 3.0 | 10.0 | 0.00 | 0.15 | 0.15 | 97 | 1013.2 |
| 20260902043105 | 80 | 158 | 3.0 | 10.0 | 0.00 | 0.15 | 0.15 | 98 | 1013.2 |
| 20260902042602 | 80 | 113 | 3.0 | 7.0 | 0.00 | 0.15 | 0.15 | 98 | 1013.2 |
| 20260902042043 | 80 | 135 | 2.0 | 9.0 | 0.00 | 0.15 | 0.15 | 98 | 1013.2 |
| 20260902041539 | 80 | 113 | 2.0 | 9.0 | 0.00 | 0.15 | 0.15 | 98 | 1013.2 |
| 20260902041035 | 80 | 113 | 4.0 | 9.0 | 0.00 | 0.15 | 0.15 | 98 | 1013.2 |
| 20260902040516 | 80 | 135 | 4.0 | 9.0 | 0.00 | 0.15 | 0.15 | 98 | 1013.2 |
| 20260902040008 | 80 | 90 | 4.0 | 9.0 | 0.00 | 0.15 | 0.15 | 98 | 1013.2 |
| 20260902035449 | 80 | 113 | 2.0 | 9.0 | 0.00 | 0.15 | 0.15 | 98 | 1013.2 |
| 20260902034945 | 80 | 90 | 4.0 | 9.0 | 0.00 | 0.15 | 0.15 | 98 | 1013.2 |
| 20260902034442 | 80 | 113 | 3.0 | 9.0 | 0.00 | 0.15 | 0.15 | 98 | 1013.2 |
| 20260902033938 | 80 | 113 | 1.0 | 9.0 | 0.00 | 0.15 | 0.15 | 98 | 1013.2 |
| 20260902033419 | 80 | 68 | 4.0 | 9.0 | 0.00 | 0.15 | 0.15 | 98 | 1013.2 |
| 20260902032916 | 80 | 135 | 5.0 | 9.0 | 0.00 | 0.15 | 0.15 | 98 | 1013.2 |
| 20260902032412 | 80 | 113 | 2.0 | 9.0 | 0.00 | 0.15 | 0.15 | 98 | 1013.2 |
| 20260902031853 | 80 | 113 | 2.0 | 7.0 | 0.00 | 0.15 | 0.15 | 98 | 1013.2 |
| 20260902031350 | 80 | 158 | 0.0 | 7.0 | 0.00 | 0.15 | 0.15 | 98 | 1012.9 |
| 20260902030846 | 80 | 113 | 1.0 | 6.0 | 0.00 | 0.15 | 0.15 | 98 | 1012.9 |
| 20260902030342 | 80 | 90 | 2.0 | 6.0 | 0.00 | 0.15 | 0.15 | 98 | 1012.9 |
| 20260902025839 | 80 | 113 | 2.0 | 6.0 | 0.00 | 0.15 | 0.15 | 98 | 1012.9 |
| 20260902025335 | 80 | 113 | 0.0 | 6.0 | 0.00 | 0.15 | 0.15 | 98 | 1012.9 |
| 20260902024831 | 81 | 113 | 0.0 | 6.0 | 0.00 | 0.15 | 0.15 | 98 | 1012.5 |
| 20260902024327 | 81 | 113 | 2.0 | 6.0 | 0.00 | 0.15 | 0.15 | 98 | 1012.5 |
| 20260902023823 | 81 | 113 | 2.0 | 6.0 | 0.00 | 0.15 | 0.15 | 97 | 1012.5 |
| 20260902023320 | 81 | 113 | 0.0 | 6.0 | 0.00 | 0.15 | 0.15 | 97 | 1012.5 |
| 20260902022711 | 81 | 90 | 1.0 | 6.0 | 0.00 | 0.15 | 0.15 | 97 | 1012.5 |
| 20260902022207 | 81 | 135 | 2.0 | 6.0 | 0.00 | 0.15 | 0.15 | 97 | 1012.5 |
| 20260902021701 | 81 | 135 | 2.0 | 6.0 | 0.00 | 0.15 | 0.15 | 97 | 1012.5 |
| 20260902021157 | 81 | 113 | 2.0 | 5.0 | 0.00 | 0.15 | 0.15 | 97 | 1012.2 |
| 20260902020653 | 81 | 113 | 2.0 | 5.0 | 0.00 | 0.15 | 0.15 | 97 | 1012.2 |
| 20260902020149 | 81 | 113 | 2.0 | 5.0 | 0.00 | 0.15 | 0.15 | 97 | 1012.2 |
| 20260902015644 | 81 | 113 | 2.0 | 5.0 | 0.00 | 0.15 | 0.15 | 97 | 1012.2 |
| 20260902015141 | 81 | 135 | 0.0 | 5.0 | 0.00 | 0.15 | 0.15 | 97 | 1012.2 |
| 20260902014621 | 81 | 113 | 3.0 | 5.0 | 0.00 | 0.15 | 0.15 | 97 | 1012.2 |
| 20260902014103 | 81 | 158 | 2.0 | 3.0 | 0.00 | 0.15 | 0.15 | 97 | 1012.2 |
| 20260902013559 | 81 | 158 | 2.0 | 4.0 | 0.00 | 0.15 | 0.15 | 97 | 1012.2 |
| 20260902013040 | 81 | 158 | 0.0 | 4.0 | 0.00 | 0.15 | 0.15 | 97 | 1012.2 |
| 20260902012536 | 81 | 158 | 2.0 | 6.0 | 0.00 | 0.15 | 0.15 | 97 | 1012.2 |
| 20260902012032 | 81 | 158 | 1.0 | 6.0 | 0.00 | 0.15 | 0.15 | 96 | 1012.2 |
| 20260902011528 | 81 | 158 | 0.0 | 6.0 | 0.00 | 0.15 | 0.15 | 96 | 1012.2 |
| 20260902011024 | 81 | 135 | 1.0 | 7.0 | 0.00 | 0.15 | 0.15 | 96 | 1012.2 |
| 20260902010520 | 81 | 135 | 2.0 | 7.0 | 0.00 | 0.15 | 0.15 | 96 | 1012.2 |
| 20260902010016 | 81 | 180 | 0.0 | 7.0 | 0.00 | 0.15 | 0.15 | 96 | 1012.2 |
| 20260902005512 | 82 | 113 | 2.0 | 7.0 | 0.00 | 0.15 | 0.15 | 96 | 1012.2 |
| 20260902005009 | 82 | 113 | 1.0 | 7.0 | 0.00 | 0.15 | 0.15 | 95 | 1012.2 |
| 20260902004505 | 82 | 113 | 2.0 | 7.0 | 0.00 | 0.15 | 0.15 | 95 | 1012.2 |
| 20260902004001 | 82 | 135 | 2.0 | 7.0 | 0.00 | 0.15 | 0.15 | 95 | 1012.2 |
| 20260902003457 | 82 | 113 | 4.0 | 7.0 | 0.00 | 0.15 | 0.15 | 94 | 1011.9 |
| 20260902002953 | 82 | 68 | 2.0 | 9.0 | 0.00 | 0.15 | 0.15 | 94 | 1011.9 |
| 20260902002448 | 82 | 113 | 3.0 | 9.0 | 0.00 | 0.15 | 0.15 | 94 | 1011.9 |
| 20260902001945 | 82 | 135 | 2.0 | 9.0 | 0.00 | 0.15 | 0.15 | 93 | 1011.9 |
| 20260902001426 | 82 | 90 | 1.0 | 9.0 | 0.00 | 0.15 | 0.15 | 93 | 1011.9 |
| 20260902000922 | 83 | 68 | 4.0 | 9.0 | 0.00 | 0.15 | 0.15 | 92 | 1012.2 |
| 20260902000418 | 83 | 135 | 2.0 | 9.0 | 0.00 | 0.15 | 0.15 | 92 | 1012.2 |
| 20260901235914 | 83 | 113 | 3.0 | 9.0 | 0.00 | 0.15 | 0.15 | 92 | 1012.2 |
| 20260901235410 | 83 | 90 | 2.0 | 10.0 | 0.00 | 0.15 | 0.15 | 92 | 1012.2 |
| 20260901234906 | 83 | 135 | 5.0 | 10.0 | 0.00 | 0.15 | 0.15 | 91 | 1012.2 |
| 20260901234346 | 83 | 158 | 5.0 | 10.0 | 0.00 | 0.15 | 0.15 | 91 | 1012.2 |
| 20260901233842 | 84 | 113 | 6.0 | 10.0 | 0.00 | 0.15 | 0.15 | 90 | 1012.2 |
| 20260901233338 | 84 | 90 | 2.0 | 10.0 | 0.00 | 0.15 | 0.15 | 90 | 1012.2 |
| 20260901232819 | 84 | 90 | 2.0 | 10.0 | 0.00 | 0.15 | 0.15 | 89 | 1012.2 |
| 20260901232254 | 84 | 135 | 3.0 | 10.0 | 0.00 | 0.15 | 0.15 | 89 | 1012.2 |
| 20260901231750 | 85 | 90 | 0.0 | 10.0 | 0.00 | 0.15 | 0.15 | 88 | 1012.2 |
| 20260901231246 | 85 | 113 | 2.0 | 10.0 | 0.00 | 0.15 | 0.15 | 87 | 1011.9 |
| 20260901230741 | 85 | 90 | 3.0 | 10.0 | 0.00 | 0.15 | 0.15 | 86 | 1011.9 |
| 20260901230235 | 85 | 113 | 5.0 | 10.0 | 0.00 | 0.15 | 0.15 | 87 | 1011.9 |
| 20260901225730 | 85 | 113 | 2.0 | 10.0 | 0.00 | 0.15 | 0.15 | 87 | 1011.5 |
| 20260901225221 | 85 | 113 | 3.0 | 7.0 | 0.00 | 0.15 | 0.15 | 88 | 1011.5 |
| 20260901224717 | 85 | 135 | 4.0 | 7.0 | 0.00 | 0.15 | 0.15 | 88 | 1011.5 |
| 20260901224212 | 86 | 90 | 1.0 | 8.0 | 0.00 | 0.15 | 0.15 | 87 | 1011.5 |
| 20260901223708 | 85 | 135 | 4.0 | 11.0 | 0.00 | 0.15 | 0.15 | 86 | 1011.5 |
| 20260901223200 | 86 | 113 | 4.0 | 11.0 | 0.00 | 0.15 | 0.15 | 85 | 1011.5 |
| 20260901222641 | 86 | 90 | 2.0 | 11.0 | 0.00 | 0.15 | 0.15 | 84 | 1011.5 |
| 20260901222135 | 86 | 113 | 2.0 | 11.0 | 0.00 | 0.15 | 0.15 | 84 | 1011.5 |
| 20260901221630 | 86 | 135 | 4.0 | 11.0 | 0.00 | 0.15 | 0.15 | 83 | 1011.5 |
| 20260901221112 | 86 | 90 | 2.0 | 11.0 | 0.00 | 0.15 | 0.15 | 82 | 1011.5 |
| 20260901220539 | 86 | 113 | 5.0 | 11.0 | 0.00 | 0.15 | 0.15 | 81 | 1011.5 |
| 20260901220035 | 86 | 68 | 2.0 | 11.0 | 0.00 | 0.15 | 0.15 | 81 | 1011.2 |
| 20260901215532 | 86 | 113 | 4.0 | 11.0 | 0.00 | 0.15 | 0.15 | 81 | 1011.2 |
| 20260901215028 | 86 | 68 | 4.0 | 11.0 | 0.00 | 0.15 | 0.15 | 81 | 1011.2 |
| 20260901214508 | 86 | 113 | 2.0 | 11.0 | 0.00 | 0.15 | 0.15 | 82 | 1011.5 |
| 20260901214004 | 86 | 90 | 4.0 | 11.0 | 0.00 | 0.15 | 0.15 | 82 | 1011.5 |
| 20260901213500 | 87 | 113 | 5.0 | 11.0 | 0.00 | 0.15 | 0.15 | 83 | 1011.9 |
| 20260901212956 | 86 | 68 | 4.0 | 11.0 | 0.00 | 0.15 | 0.15 | 83 | 1011.9 |
| 20260901212452 | 86 | 135 | 6.0 | 11.0 | 0.00 | 0.15 | 0.15 | 82 | 1011.9 |
| 20260901211948 | 86 | 113 | 4.0 | 11.0 | 0.00 | 0.15 | 0.15 | 84 | 1011.9 |
| 20260901211444 | 86 | 113 | 6.0 | 11.0 | 0.00 | 0.15 | 0.15 | 85 | 1011.9 |
| 20260901210939 | 87 | 135 | 8.0 | 11.0 | 0.00 | 0.15 | 0.15 | 85 | 1012.2 |
| 20260901210436 | 86 | 113 | 3.0 | 8.0 | 0.00 | 0.15 | 0.15 | 85 | 1012.2 |
| 20260901205917 | 86 | 203 | 2.0 | 8.0 | 0.00 | 0.15 | 0.15 | 85 | 1012.5 |
| 20260901205412 | 86 | 90 | 7.0 | 8.0 | 0.00 | 0.15 | 0.15 | 85 | 1012.5 |
| 20260901204853 | 86 | 135 | 2.0 | 8.0 | 0.00 | 0.15 | 0.15 | 86 | 1012.5 |
| 20260901204349 | 86 | 90 | 2.0 | 8.0 | 0.00 | 0.15 | 0.15 | 86 | 1012.5 |
| 20260901203845 | 85 | 113 | 2.0 | 8.0 | 0.00 | 0.15 | 0.15 | 87 | 1012.5 |
| 20260901203341 | 86 | 135 | 3.0 | 9.0 | 0.00 | 0.15 | 0.15 | 87 | 1012.9 |
| 20260901202836 | 85 | 68 | 2.0 | 9.0 | 0.00 | 0.15 | 0.15 | 87 | 1012.9 |
| 20260901202318 | 85 | 113 | 5.0 | 9.0 | 0.00 | 0.15 | 0.15 | 87 | 1012.5 |
| 20260901201814 | 85 | 68 | 2.0 | 9.0 | 0.00 | 0.15 | 0.15 | 88 | 1012.5 |
| 20260901201310 | 85 | 90 | 4.0 | 9.0 | 0.00 | 0.15 | 0.15 | 89 | 1012.5 |
| 20260901200806 | 84 | 113 | 2.0 | 9.0 | 0.00 | 0.15 | 0.15 | 89 | 1012.5 |
| 20260901200303 | 85 | 113 | 2.0 | 9.0 | 0.00 | 0.15 | 0.15 | 89 | 1012.5 |
| 20260901195743 | 84 | 68 | 1.0 | 9.0 | 0.00 | 0.15 | 0.15 | 89 | 1012.9 |
| 20260901195224 | 84 | 135 | 2.0 | 9.0 | 0.00 | 0.15 | 0.15 | 89 | 1012.9 |
| 20260901194705 | 84 | 90 | 2.0 | 9.0 | 0.00 | 0.15 | 0.15 | 90 | 1013.2 |
| 20260901194201 | 84 | 90 | 5.0 | 9.0 | 0.00 | 0.15 | 0.15 | 89 | 1013.2 |
| 20260901193657 | 84 | 113 | 7.0 | 9.0 | 0.00 | 0.15 | 0.15 | 89 | 1013.2 |
| 20260901193138 | 84 | 113 | 9.0 | 9.0 | 0.00 | 0.15 | 0.15 | 89 | 1013.2 |
| 20260901192634 | 84 | 158 | 2.0 | 8.0 | 0.00 | 0.15 | 0.15 | 90 | 1013.2 |
| 20260901192131 | 83 | 113 | 4.0 | 8.0 | 0.00 | 0.15 | 0.15 | 90 | 1013.2 |
| 20260901191627 | 83 | 135 | 2.0 | 8.0 | 0.00 | 0.15 | 0.15 | 90 | 1013.2 |
| 20260901191123 | 83 | 135 | 6.0 | 8.0 | 0.00 | 0.15 | 0.15 | 90 | 1013.2 |
| 20260901190603 | 83 | 90 | 4.0 | 7.0 | 0.00 | 0.15 | 0.15 | 91 | 1013.2 |
| 20260901190100 | 83 | 135 | 4.0 | 7.0 | 0.00 | 0.15 | 0.15 | 91 | 1013.2 |
| 20260901185555 | 83 | 135 | 5.0 | 7.0 | 0.00 | 0.15 | 0.15 | 91 | 1013.2 |
| 20260901185051 | 82 | 135 | 4.0 | 7.0 | 0.00 | 0.15 | 0.15 | 91 | 1013.2 |
| 20260901184547 | 82 | 68 | 2.0 | 7.0 | 0.00 | 0.15 | 0.15 | 92 | 1013.2 |
| 20260901184043 | 81 | 90 | 1.0 | 7.0 | 0.00 | 0.15 | 0.15 | 93 | 1013.2 |
| 20260901183539 | 81 | 113 | 3.0 | 7.0 | 0.00 | 0.15 | 0.15 | 93 | 1013.2 |
| 20260901183035 | 81 | 68 | 5.0 | 7.0 | 0.00 | 0.15 | 0.15 | 95 | 1013.2 |
| 20260901182531 | 80 | 113 | 2.0 | 7.0 | 0.00 | 0.15 | 0.15 | 95 | 1013.2 |
| 20260901182011 | 80 | 45 | 4.0 | 7.0 | 0.00 | 0.15 | 0.15 | 95 | 1013.2 |
| 20260901181502 | 80 | 90 | 2.0 | 11.0 | 0.00 | 0.15 | 0.15 | 96 | 1013.2 |
| 20260901180951 | 80 | 135 | 0.0 | 11.0 | 0.01 | 0.15 | 0.15 | 96 | 1012.9 |
| 20260901180432 | 80 | 113 | 1.0 | 11.0 | 0.01 | 0.15 | 0.15 | 96 | 1012.9 |
| 20260901175928 | 80 | 90 | 5.0 | 11.0 | 0.02 | 0.15 | 0.15 | 96 | 1013.2 |
| 20260901175424 | 80 | 90 | 3.0 | 11.0 | 0.03 | 0.15 | 0.15 | 96 | 1013.2 |
| 20260901174920 | 80 | 68 | 4.0 | 11.0 | 0.06 | 0.15 | 0.15 | 97 | 1013.2 |
| 20260901174400 | 80 | 90 | 2.0 | 11.0 | 0.06 | 0.15 | 0.15 | 97 | 1013.2 |
| 20260901173856 | 80 | 68 | 2.0 | 11.0 | 0.06 | 0.15 | 0.15 | 97 | 1013.2 |
| 20260901173352 | 79 | 45 | 2.0 | 11.0 | 0.07 | 0.15 | 0.15 | 97 | 1013.5 |
| 20260901172833 | 79 | 113 | 4.0 | 11.0 | 0.07 | 0.15 | 0.15 | 97 | 1013.5 |
| 20260901172329 | 79 | 90 | 5.0 | 11.0 | 0.07 | 0.15 | 0.15 | 96 | 1013.2 |
| 20260901171825 | 79 | 90 | 6.0 | 11.0 | 0.07 | 0.15 | 0.15 | 96 | 1013.2 |
| 20260901171306 | 80 | 158 | 8.0 | 11.0 | 0.07 | 0.15 | 0.15 | 96 | 1013.2 |
| 20260901170802 | 80 | 45 | 9.0 | 11.0 | 0.06 | 0.14 | 0.14 | 97 | 1013.2 |
| 20260901170257 | 81 | 135 | 7.0 | 11.0 | 0.06 | 0.14 | 0.14 | 97 | 1013.2 |
| 20260901165717 | 81 | 135 | 5.0 | 8.0 | 0.05 | 0.13 | 0.13 | 97 | 1013.2 |
| 20260901164527 | 83 | 135 | 5.0 | 7.0 | 0.01 | 0.09 | 0.09 | 96 | 1013.2 |
| 20260901163536 | 83 | 68 | 3.0 | 7.0 | 0.01 | 0.09 | 0.09 | 94 | 1013.2 |
| 20260901163145 | 84 | 90 | 5.0 | 7.0 | 0.00 | 0.08 | 0.08 | 92 | 1013.2 |
| 20260901162602 | 84 | 68 | 4.0 | 7.0 | 0.00 | 0.08 | 0.08 | 92 | 1013.2 |
| 20260901162038 | 84 | 113 | 2.0 | 7.0 | 0.00 | 0.08 | 0.08 | 92 | 1013.2 |
| 20260901161410 | 84 | 113 | 4.0 | 7.0 | 0.00 | 0.08 | 0.08 | 93 | 1013.2 |
| 20260901160841 | 83 | 45 | 6.0 | 7.0 | 0.00 | 0.08 | 0.08 | 93 | 1013.2 |
| 20260901160314 | 83 | 45 | 1.0 | 7.0 | 0.01 | 0.08 | 0.08 | 93 | 1013.2 |
| 20260901155735 | 83 | 68 | 4.0 | 7.0 | 0.01 | 0.08 | 0.08 | 96 | 1013.2 |
| 20260901155209 | 81 | 113 | 4.0 | 7.0 | 0.01 | 0.08 | 0.08 | 97 | 1013.2 |
| 20260901154643 | 82 | 113 | 2.0 | 7.0 | 0.01 | 0.08 | 0.08 | 96 | 1013.2 |
| 20260901154116 | 81 | 90 | 2.0 | 7.0 | 0.01 | 0.08 | 0.08 | 96 | 1013.2 |
| 20260901153548 | 81 | 90 | 1.0 | 9.0 | 0.01 | 0.08 | 0.08 | 96 | 1013.2 |
| 20260901153038 | 82 | 68 | 4.0 | 9.0 | 0.01 | 0.08 | 0.08 | 97 | 1013.2 |
| 20260901152534 | 81 | 90 | 0.0 | 11.0 | 0.01 | 0.08 | 0.08 | 96 | 1013.2 |
| 20260901152015 | 82 | 113 | 4.0 | 11.0 | 0.01 | 0.08 | 0.08 | 96 | 1013.2 |
| 20260901151510 | 82 | 113 | 2.0 | 11.0 | 0.01 | 0.08 | 0.08 | 96 | 1013.2 |
| 20260901151006 | 82 | 23 | 3.0 | 11.0 | 0.01 | 0.08 | 0.08 | 95 | 1013.2 |
| 20260901150502 | 82 | 68 | 4.0 | 11.0 | 0.00 | 0.07 | 0.07 | 93 | 1013.2 |
| 20260901145958 | 82 | 135 | 2.0 | 11.0 | 0.00 | 0.07 | 0.07 | 93 | 1013.2 |
| 20260901145447 | 82 | 135 | 2.0 | 11.0 | 0.00 | 0.07 | 0.07 | 93 | 1013.2 |
| 20260901144928 | 82 | 68 | 4.0 | 11.0 | 0.00 | 0.07 | 0.07 | 92 | 1013.2 |
| 20260901144424 | 82 | 90 | 2.0 | 11.0 | 0.00 | 0.07 | 0.07 | 92 | 1013.2 |
| 20260901143919 | 81 | 135 | 9.0 | 11.0 | 0.00 | 0.07 | 0.07 | 92 | 1013.2 |
| 20260901143415 | 81 | 113 | 2.0 | 11.0 | 0.00 | 0.07 | 0.07 | 92 | 1013.2 |
| 20260901142911 | 81 | 113 | 7.0 | 11.0 | 0.00 | 0.07 | 0.07 | 92 | 1013.2 |
| 20260901142407 | 81 | 90 | 2.0 | 9.0 | 0.00 | 0.07 | 0.07 | 92 | 1013.2 |
| 20260901141902 | 81 | 113 | 6.0 | 9.0 | 0.00 | 0.07 | 0.07 | 92 | 1013.2 |
| 20260901141358 | 81 | 180 | 2.0 | 7.0 | 0.00 | 0.07 | 0.07 | 92 | 1013.2 |
| 20260901140854 | 82 | 90 | 4.0 | 7.0 | 0.00 | 0.07 | 0.07 | 93 | 1013.2 |
| 20260901140350 | 81 | 135 | 6.0 | 7.0 | 0.00 | 0.07 | 0.07 | 93 | 1013.2 |
| 20260901135845 | 81 | 113 | 5.0 | 7.0 | 0.00 | 0.07 | 0.07 | 95 | 1013.2 |
| 20260901135341 | 80 | 68 | 2.0 | 7.0 | 0.00 | 0.07 | 0.07 | 97 | 1013.2 |
| 20260901134837 | 80 | 90 | 2.0 | 7.0 | 0.00 | 0.07 | 0.07 | 98 | 1013.2 |
| 20260901134332 | 79 | 90 | 4.0 | 7.0 | 0.00 | 0.07 | 0.07 | 99 | 1013.2 |
| 20260901133828 | 78 | 113 | 2.0 | 7.0 | 0.00 | 0.07 | 0.07 | 99 | 1013.2 |
| 20260901133324 | 78 | 135 | 0.0 | 6.0 | 0.03 | 0.07 | 0.07 | 99 | 1013.2 |
| 20260901132820 | 78 | 90 | 2.0 | 6.0 | 0.03 | 0.07 | 0.07 | 99 | 1013.2 |
| 20260901132155 | 78 | 113 | 4.0 | 7.0 | 0.03 | 0.07 | 0.07 | 99 | 1012.9 |
| 20260901131651 | 78 | 90 | 0.0 | 7.0 | 0.03 | 0.07 | 0.07 | 99 | 1012.9 |
| 20260901131147 | 78 | 113 | 2.0 | 7.0 | 0.03 | 0.07 | 0.07 | 99 | 1013.2 |
| 20260901130642 | 77 | 45 | 2.0 | 7.0 | 0.03 | 0.07 | 0.07 | 99 | 1013.2 |
| 20260901130138 | 77 | 90 | 2.0 | 7.0 | 0.03 | 0.07 | 0.07 | 99 | 1012.9 |
| 20260901125633 | 77 | 68 | 2.0 | 7.0 | 0.03 | 0.07 | 0.07 | 99 | 1012.9 |
| 20260901125129 | 77 | 90 | 3.0 | 7.0 | 0.03 | 0.07 | 0.07 | 99 | 1012.9 |
| 20260901124625 | 77 | 135 | 3.0 | 7.0 | 0.03 | 0.07 | 0.07 | 99 | 1012.9 |
| 20260901124119 | 77 | 90 | 2.0 | 7.0 | 0.03 | 0.07 | 0.07 | 99 | 1012.9 |
| 20260901123614 | 77 | 135 | 5.0 | 7.0 | 0.01 | 0.05 | 0.05 | 99 | 1012.5 |
| 20260901123107 | 77 | 113 | 2.0 | 7.0 | 0.00 | 0.04 | 0.04 | 99 | 1012.5 |
| 20260901122442 | 76 | 68 | 4.0 | 7.0 | 0.01 | 0.04 | 0.04 | 99 | 1012.2 |
| 20260901121900 | 76 | 90 | 3.0 | 7.0 | 0.01 | 0.04 | 0.04 | 99 | 1012.2 |
| 20260901121337 | 76 | 68 | 4.0 | 7.0 | 0.01 | 0.04 | 0.04 | 99 | 1012.2 |
| 20260901120812 | 76 | 68 | 2.0 | 7.0 | 0.01 | 0.04 | 0.04 | 99 | 1012.2 |
| 20260901120247 | 76 | 90 | 2.0 | 7.0 | 0.01 | 0.04 | 0.04 | 99 | 1012.2 |
| 20260901115724 | 76 | 90 | 2.0 | 7.0 | 0.01 | 0.04 | 0.04 | 99 | 1012.2 |
| 20260901115159 | 76 | 90 | 1.0 | 7.0 | 0.01 | 0.04 | 0.04 | 99 | 1012.2 |
| 20260901114636 | 76 | 68 | 4.0 | 7.0 | 0.01 | 0.04 | 0.04 | 99 | 1012.2 |
| 20260901114111 | 76 | 68 | 3.0 | 7.0 | 0.01 | 0.04 | 0.04 | 99 | 1012.2 |
| 20260901113427 | 76 | 45 | 7.0 | 7.0 | 0.01 | 0.04 | 0.04 | 99 | 1012.2 |
| 20260901112923 | 76 | 90 | 6.0 | 6.0 | 0.00 | 0.03 | 0.03 | 99 | 1012.2 |
| 20260901112417 | 76 | 68 | 2.0 | 6.0 | 0.00 | 0.03 | 0.03 | 99 | 1011.9 |
| 20260901111913 | 76 | 113 | 0.0 | 6.0 | 0.00 | 0.03 | 0.03 | 99 | 1011.9 |
| 20260901111409 | 76 | 0 | 1.0 | 6.0 | 0.00 | 0.03 | 0.03 | 99 | 1012.2 |
| 20260901110905 | 77 | 90 | 0.0 | 7.0 | 0.00 | 0.03 | 0.03 | 99 | 1012.2 |
| 20260901110401 | 77 | 68 | 2.0 | 7.0 | 0.00 | 0.03 | 0.03 | 99 | 1012.2 |
| 20260901105856 | 77 | 45 | 2.0 | 7.0 | 0.02 | 0.03 | 0.03 | 99 | 1011.9 |
| 20260901105351 | 77 | 68 | 4.0 | 7.0 | 0.03 | 0.03 | 0.03 | 99 | 1011.9 |
| 20260901104846 | 77 | 113 | 4.0 | 7.0 | 0.03 | 0.03 | 0.03 | 99 | 1011.9 |
| 20260901104325 | 77 | 90 | 2.0 | 7.0 | 0.03 | 0.03 | 0.03 | 99 | 1011.9 |
| 20260901103821 | 77 | 90 | 2.0 | 7.0 | 0.03 | 0.03 | 0.03 | 99 | 1011.9 |
| 20260901103315 | 77 | 68 | 2.0 | 7.0 | 0.03 | 0.03 | 0.03 | 99 | 1011.9 |